This demonstration page uses our WeatherBlox Daily Observations layout. Learn more.

Left ArrowRight Arrow

Hourly Observations for August 30, 2018

Temp ( °F °C ) Dew Point ( °F °C ) Humidity (%) Winds ( mph kmh ) Pressure ( in mb ) Visibility ( mi km ) Precip ( " mm )
12:15 am 00:15 Clear 70 21 70 21 100 100 N 6 9 30.12 1020 10 16 N/A
12:16 am 00:16 Clear 70 21 70 21 100 100 N 6 9 30.12 1020 10 16 N/A
12:35 am 00:35 Clear 68 20 68 20 100 100 N 6 9 30.15 1021 10 16 N/A
12:55 am 00:55 Clear 68 20 68 20 100 100 N 5 7 30.15 1021 10 16 N/A
1:16 am 01:16 Clear 68 20 68 20 100 100 N 5 7 30.15 1021 10 16 N/A
1:35 am 01:35 Clear 68 20 68 20 100 100 NNE 5 7 30.15 1021 10 16 N/A
1:55 am 01:55 Clear 66 19 66 19 100 100 N 3 6 30.15 1021 10 16 N/A
2:15 am 02:15 Mostly Cloudy 66 19 66 19 100 100 NNW 5 7 30.15 1021 10 16 N/A
2:16 am 02:16 Mostly Cloudy 66 19 66 19 100 100 NNW 5 7 30.15 1021 10 16 N/A
2:35 am 02:35 Mostly Cloudy 66 19 66 19 100 100 N 6 9 30.15 1021 10 16 N/A
2:55 am 02:55 Partly Cloudy 66 19 66 19 100 100 N 5 7 30.15 1021 10 16 N/A
3:16 am 03:16 Partly Cloudy 66 19 66 19 100 100 N 6 9 30.15 1021 10 16 N/A
3:35 am 03:35 Mostly Cloudy 66 19 66 19 100 100 N 7 11 30.15 1021 10 16 N/A
3:55 am 03:55 Cloudy 66 19 66 19 100 100 N 6 9 30.15 1021 10 16 N/A
3:56 am 03:56 Cloudy 66 19 66 19 100 100 N 6 9 30.15 1021 10 16 N/A
4:15 am 04:15 Cloudy 66 19 66 19 100 100 N 6 9 30.15 1021 10 16 N/A
4:35 am 04:35 Cloudy 66 19 66 19 100 100 N 7 11 30.15 1021 10 16 N/A
4:56 am 04:56 Cloudy 66 19 66 19 100 100 N 7 11 30.15 1021 10 16 N/A
5:15 am 05:15 Cloudy 66 19 66 19 100 100 N 7 11 30.15 1021 10 16 N/A
5:35 am 05:35 Cloudy 66 19 66 19 100 100 N 8 13 30.15 1021 10 16 N/A
5:56 am 05:56 Cloudy 66 19 66 19 100 100 N 7 11 30.15 1021 10 16 N/A
6:15 am 06:15 Cloudy 64 18 64 18 100 100 N 6 9 30.15 1021 10 16 N/A
6:35 am 06:35 Cloudy 64 18 64 18 100 100 NNE 6 9 30.18 1022 10 16 N/A
6:36 am 06:36 Cloudy 64 18 64 18 100 100 NNE 5 7 30.18 1022 10 16 N/A
6:55 am 06:55 Cloudy 64 18 64 18 100 100 N 8 13 30.18 1022 10 16 N/A
7:16 am 07:16 Cloudy 64 18 64 18 100 100 NNE 7 11 30.18 1022 10 16 N/A
7:36 am 07:36 Cloudy 64 18 64 18 100 100 N 8 13 30.18 1022 10 16 N/A
7:55 am 07:55 Cloudy 64 18 64 18 100 100 N 8 13 30.18 1022 10 16 N/A
8:15 am 08:15 Cloudy 64 18 63 17 94 94 N 9 15 30.18 1022 10 16 N/A
8:16 am 08:16 Cloudy 64 18 63 17 94 94 N 9 15 30.18 1022 10 16 N/A
8:35 am 08:35 Cloudy 64 18 64 18 100 100 N 8 13 30.18 1022 10 16 N/A
8:55 am 08:55 Cloudy 63 17 63 17 100 100 N 8 13 30.18 1022 10 16 N/A
9:16 am 09:16 Cloudy 64 18 64 18 100 100 N 9 15 30.18 1022 10 16 N/A
9:35 am 09:35 Cloudy 64 18 64 18 100 100 N 8 13 30.18 1022 10 16 N/A
9:55 am 09:55 Cloudy 64 18 64 18 100 100 NNE 8 13 30.18 1022 10 16 N/A
10:15 am 10:15 Cloudy 66 19 64 18 94 94 N 10 17 30.18 1022 10 16 N/A
10:16 am 10:16 Cloudy 66 19 64 18 94 94 NNE 10 17 30.18 1022 10 16 N/A
10:35 am 10:35 Cloudy 66 19 64 18 94 94 N 8 13 30.18 1022 10 16 N/A
10:55 am 10:55 Mostly Cloudy 68 20 64 18 88 88 N 7 11 30.18 1022 10 16 N/A
11:16 am 11:16 Partly Cloudy 70 21 64 18 83 83 N 9 15 30.18 1022 10 16 N/A
11:35 am 11:35 Sunny 72 22 64 18 78 78 N 9 15 30.18 1022 10 16 N/A
11:55 am 11:55 Sunny 72 22 64 18 78 78 NNE 6 9 30.18 1022 10 16 N/A
11:56 am 11:56 Sunny 72 22 64 18 78 78 NNE 6 9 30.18 1022 10 16 N/A
12:15 pm 12:15 Sunny 73 23 64 18 74 74 NNE 7 11 30.15 1021 10 16 N/A
12:35 pm 12:35 Sunny 73 23 64 18 74 74 NE 3 6 30.15 1021 10 16 N/A
12:56 pm 12:56 Sunny 75 24 66 19 74 74 ENE 3 6 30.15 1021 10 16 N/A
1:15 pm 13:15 Sunny 75 24 66 19 74 74 N N/A 30.15 1021 10 16 N/A
1:35 pm 13:35 Sunny 75 24 64 18 69 69 N N/A 30.15 1021 10 16 N/A
1:56 pm 13:56 Sunny 75 24 66 19 74 74 NE 3 6 30.15 1021 10 16 N/A
2:15 pm 14:15 Sunny 77 25 66 19 69 69 NNE 5 7 30.12 1020 10 16 N/A
2:35 pm 14:35 Sunny 75 24 66 19 74 74 E 6 9 30.12 1020 10 16 N/A
2:55 pm 14:55 Sunny 77 25 66 19 69 69 N N/A 30.12 1020 10 16 N/A
2:56 pm 14:56 Sunny 77 25 66 19 69 69 N N/A 30.12 1020 10 16 N/A
3:15 pm 15:15 Sunny 77 25 66 19 69 69 N N/A 30.12 1020 10 16 N/A
3:35 pm 15:35 Sunny 77 25 68 20 74 74 SE 3 6 30.12 1020 10 16 N/A
3:55 pm 15:55 Sunny 79 26 66 19 65 65 N N/A 30.12 1020 10 16 N/A
3:56 pm 15:56 Sunny 79 26 66 19 65 65 N N/A 30.12 1020 10 16 N/A
4:15 pm 16:15 Sunny 79 26 68 20 70 70 NW 7 11 30.12 1020 10 16 N/A
4:35 pm 16:35 Sunny 79 26 68 20 70 70 NW 5 7 30.12 1020 10 16 N/A
4:36 pm 16:36 Sunny 79 26 68 20 70 70 NW 6 9 30.12 1020 10 16 N/A
4:55 pm 16:55 Partly Cloudy 79 26 68 20 70 70 N N/A 30.12 1020 10 16 N/A
5:15 pm 17:15 Partly Cloudy 81 27 68 20 66 66 NW 8 13 30.12 1020 10 16 N/A
5:36 pm 17:36 Sunny 79 26 68 20 70 70 N 6 9 30.09 1019 10 16 N/A
5:55 pm 17:55 Sunny 79 26 68 20 70 70 N 6 9 30.09 1019 10 16 N/A
6:15 pm 18:15 Sunny 79 26 68 20 70 70 N 7 11 30.09 1019 10 16 N/A
6:16 pm 18:16 Sunny 79 26 68 20 70 70 N 8 13 30.09 1019 10 16 N/A
6:35 pm 18:35 Sunny 77 25 68 20 74 74 NNE 9 15 30.09 1019 10 16 N/A
6:36 pm 18:36 Sunny 77 25 68 20 74 74 NNE 8 13 30.09 1019 10 16 N/A
6:55 pm 18:55 Sunny 77 25 68 20 74 74 NNE 7 11 30.09 1019 10 16 N/A
7:15 pm 19:15 Sunny 75 24 68 20 78 78 N 7 11 30.09 1019 10 16 N/A
7:16 pm 19:16 Sunny 75 24 68 20 78 78 N 7 11 30.09 1019 10 16 N/A
7:35 pm 19:35 Sunny 73 23 68 20 83 83 NNE 7 11 30.09 1019 10 16 N/A
7:36 pm 19:36 Sunny 73 23 68 20 83 83 NNE 7 11 30.09 1019 10 16 N/A
7:55 pm 19:55 Sunny 72 22 68 20 88 88 NNE 6 9 30.09 1019 10 16 N/A
8:15 pm 20:15 Sunny 70 21 68 20 94 94 N 8 13 30.15 1021 10 16 N/A
8:16 pm 20:16 Sunny 70 21 68 20 94 94 N 8 13 30.15 1021 10 16 N/A
8:35 pm 20:35 Clear 68 20 66 19 94 94 NNE 8 13 30.15 1021 10 16 N/A
8:36 pm 20:36 Clear 68 20 66 19 94 94 NNE 9 15 30.15 1021 10 16 N/A
8:55 pm 20:55 Clear 66 19 66 19 100 100 NNE 7 11 30.15 1021 10 16 N/A
9:16 pm 21:16 Clear 66 19 66 19 100 100 NE 3 6 30.15 1021 10 16 N/A
9:35 pm 21:35 Clear 64 18 64 18 100 100 N 5 7 30.15 1021 10 16 N/A
9:55 pm 21:55 Clear 64 18 64 18 100 100 NNE 5 7 30.18 1022 10 16 N/A
10:15 pm 22:15 Clear 63 17 63 17 100 100 N N/A 30.15 1021 10 16 N/A
10:16 pm 22:16 Clear 63 17 63 17 100 100 N N/A 30.15 1021 10 16 N/A
10:35 pm 22:35 Clear 63 17 63 17 100 100 N N/A 30.15 1021 10 16 N/A
10:56 pm 22:56 Clear 63 17 63 17 100 100 N N/A 30.15 1021 10 16 N/A
11:15 pm 23:15 Clear 61 16 61 16 100 100 N N/A 30.15 1021 10 16 N/A
11:16 pm 23:16 Clear 61 16 61 16 100 100 N N/A 30.15 1021 10 16 N/A
11:35 pm 23:35 Clear 63 17 63 17 100 100 NE 3 6 30.15 1021 10 16 N/A
11:56 pm 23:56 Clear 61 16 61 16 100 100 N N/A 30.15 1021 10 16 N/A

Powered by AerisWeather